Вернуться в каталог

STARLINK-5327

АктивенСвязьVLEO
NORAD 55291·PAYLOAD·🇺🇸 United States

Запущен Jan 19, 2023 с Vandenberg Space Force Base

Loading…

Ближайшие Пролёты (ближайшие 24 часа)

TLE

СвежийSource: CelesTrak SupGP

Эпоха: Sep 15, 2026, 02:07 UTC

1 55291C 23010Y   26258.08868056 -.00022032  00000+0 -18461-2 0  2582
2 55291  70.0000 267.0456 0003114 268.9527 173.4707 14.98347406    15

Отслеживайте STARLINK-5327 в реальном времени с AllMySat

Download on the App Store